STARLINK-1442 (45659 NORAD) Tracking and Keplerian Element Data

This shows tracking and keplerian element data for the satellite.

Feedback or suggestion? Click here.




ElementValue
Catalog45659
NameSTARLINK-1442
Epoch Orbit656
Epoch Day192.25001157
Epoch Year2020
RAAN353.3758
Inclination53.0006
Eccentricity0.0001228
Argument of Perigee71.1684
Mean Anonmoly234.9233
Mean Motion15.33157622
Decay Rate-0.01073623
L11 45659U 20035C 20192.25001157 -.01073623 00000-0 -36035-1 0 9996
L22 45659 53.0006 353.3758 0001228 71.1684 234.9233 15.33157622 6567

Live tracking and technical data element details for STARLINK-1442 (NORAD 45659). STARLINK-1442 can be tracked NOW for your location showing map with azimuth and elevation plus other details from your city location.

Track the satellite on the map from your city or location and see movement details for azimuth, elevation, latitude, longitude, range, height, and movement on the map or in text.







IsCatalogInMostPopularTable: catalog: 45659, numindb: 4
Update: records affected: 1



GetName: 45659 STARLINK-1442

Hit Count: updated at: Fri, 10 Jul 2020 15:49:08 GMT